timestamp,wind_dir_avg,wind_spd_max_dir,wind_spd_avg,wind_spd_gust,battery_voltage,lat,long
2019-02-11 00:00:00+00:00,304.0,311.0,13.14,17.85,,47.59359,-54.27349
2019-02-11 00:10:00+00:00,303.0,314.0,12.3,15.6,,47.59359,-54.27349
2019-02-11 00:20:00+00:00,307.0,309.0,15.09,21.56,,47.59359,-54.27349
2019-02-11 00:30:00+00:00,305.0,295.0,11.79,17.55,,47.59359,-54.27349
2019-02-11 00:40:00+00:00,305.0,310.0,12.31,15.89,,47.59359,-54.27349
2019-02-11 00:50:00+00:00,301.0,308.0,11.07,15.56,,47.59359,-54.27349
2019-02-11 01:00:00+00:00,304.0,306.0,8.0,10.44,,47.59359,-54.27349
2019-02-11 01:10:00+00:00,308.0,311.0,10.81,14.05,,47.59359,-54.27349
2019-02-11 01:20:00+00:00,301.0,303.0,11.28,15.24,,47.59359,-54.27349
2019-02-11 01:30:00+00:00,301.0,287.0,11.93,20.71,,47.59359,-54.27349
2019-02-11 01:40:00+00:00,295.0,292.0,14.87,19.16,,47.59359,-54.27349
2019-02-11 01:50:00+00:00,295.0,296.0,12.11,18.75,,47.59359,-54.27349
2019-02-11 02:00:00+00:00,310.0,309.0,14.58,18.61,,47.59359,-54.27349
2019-02-11 02:10:00+00:00,306.0,308.0,10.97,17.65,,47.59359,-54.27349
2019-02-11 02:20:00+00:00,300.0,292.0,14.95,20.22,,47.59359,-54.27349
2019-02-11 02:30:00+00:00,304.0,309.0,13.38,17.16,,47.59359,-54.27349
2019-02-11 02:40:00+00:00,300.0,307.0,12.96,17.06,,47.59359,-54.27349
2019-02-11 02:50:00+00:00,291.0,291.0,16.07,21.7,,47.59359,-54.27349
2019-02-11 03:00:00+00:00,295.0,289.0,13.6,18.85,,47.59359,-54.27349
2019-02-11 03:10:00+00:00,301.0,308.0,12.89,17.45,,47.59359,-54.27349
2019-02-11 03:20:00+00:00,298.0,292.0,16.59,21.77,,47.59359,-54.27349
2019-02-11 03:30:00+00:00,292.0,286.0,14.72,20.36,,47.59359,-54.27349
2019-02-11 03:40:00+00:00,304.0,296.0,16.24,20.57,,47.59359,-54.27349
2019-02-11 03:50:00+00:00,303.0,310.0,13.76,16.16,,47.59359,-54.27349
2019-02-11 04:00:00+00:00,301.0,306.0,12.42,15.48,,47.59359,-54.27349
2019-02-11 04:10:00+00:00,294.0,285.0,13.88,19.97,,47.59359,-54.27349
2019-02-11 04:20:00+00:00,305.0,303.0,11.86,14.13,,47.59359,-54.27349
2019-02-11 04:30:00+00:00,294.0,303.0,10.02,14.01,,47.59359,-54.27349
2019-02-11 04:40:00+00:00,297.0,303.0,12.88,15.79,,47.59359,-54.27349
2019-02-11 04:50:00+00:00,302.0,310.0,10.87,13.89,,47.59359,-54.27349
2019-02-11 05:00:00+00:00,299.0,294.0,11.53,16.17,,47.59359,-54.27349
2019-02-11 05:10:00+00:00,307.0,313.0,12.43,17.32,,47.59359,-54.27349
2019-02-11 05:20:00+00:00,305.0,310.0,11.31,13.57,,47.59359,-54.27349
2019-02-11 05:30:00+00:00,297.0,306.0,11.68,14.58,,47.59359,-54.27349
2019-02-11 05:40:00+00:00,308.0,309.0,10.91,15.27,,47.59359,-54.27349
2019-02-11 05:50:00+00:00,308.0,310.0,11.89,14.78,,47.59359,-54.27349
2019-02-11 06:00:00+00:00,292.0,287.0,11.7,18.2,,47.59359,-54.27349
2019-02-11 06:10:00+00:00,296.0,290.0,11.91,15.08,,47.59359,-54.27349
2019-02-11 06:20:00+00:00,295.0,307.0,9.98,12.84,,47.59359,-54.27349
2019-02-11 06:30:00+00:00,301.0,309.0,13.16,16.05,,47.59359,-54.27349
2019-02-11 06:40:00+00:00,297.0,296.0,14.02,18.79,,47.59359,-54.27349
2019-02-11 06:50:00+00:00,290.0,296.0,12.14,16.68,,47.59359,-54.27349
2019-02-11 07:00:00+00:00,291.0,288.0,15.03,20.4,,47.59359,-54.27349
2019-02-11 07:10:00+00:00,287.0,285.0,13.08,19.84,,47.59359,-54.27349
2019-02-11 07:20:00+00:00,289.0,289.0,14.0,19.63,,47.59359,-54.27349
2019-02-11 07:30:00+00:00,301.0,299.0,13.03,15.73,,47.59359,-54.27349
2019-02-11 07:40:00+00:00,292.0,300.0,11.82,14.12,,47.59359,-54.27349
2019-02-11 07:50:00+00:00,302.0,300.0,15.02,20.85,,47.59359,-54.27349
2019-02-11 08:00:00+00:00,301.0,297.0,13.82,16.7,,47.59359,-54.27349
2019-02-11 08:10:00+00:00,296.0,299.0,13.46,16.3,,47.59359,-54.27349
2019-02-11 08:20:00+00:00,292.0,288.0,12.65,18.67,,47.59359,-54.27349
2019-02-11 08:30:00+00:00,294.0,307.0,13.4,16.7,,47.59359,-54.27349
2019-02-11 08:40:00+00:00,296.0,294.0,11.77,13.89,,47.59359,-54.27349
2019-02-11 08:50:00+00:00,309.0,308.0,11.11,14.77,,47.59359,-54.27349
2019-02-11 09:00:00+00:00,297.0,288.0,13.08,16.78,,47.59359,-54.27349
2019-02-11 09:10:00+00:00,294.0,299.0,14.71,20.19,,47.59359,-54.27349
2019-02-11 09:20:00+00:00,294.0,303.0,17.13,21.47,,47.59359,-54.27349
2019-02-11 09:30:00+00:00,296.0,303.0,12.97,18.13,,47.59359,-54.27349
2019-02-11 09:40:00+00:00,297.0,300.0,15.67,20.99,,47.59359,-54.27349
2019-02-11 09:50:00+00:00,283.0,277.0,16.03,19.15,,47.59359,-54.27349
2019-02-11 10:00:00+00:00,294.0,303.0,15.19,22.55,,47.59359,-54.27349
2019-02-11 10:10:00+00:00,296.0,296.0,14.52,19.33,,47.59359,-54.27349
2019-02-11 10:20:00+00:00,303.0,302.0,13.25,21.71,,47.59359,-54.27349
2019-02-11 10:30:00+00:00,292.0,290.0,15.34,19.95,,47.59359,-54.27349
2019-02-11 10:40:00+00:00,288.0,283.0,12.41,16.32,,47.59359,-54.27349
2019-02-11 10:50:00+00:00,305.0,321.0,10.46,16.93,,47.59359,-54.27349
2019-02-11 11:00:00+00:00,295.0,290.0,14.61,19.6,,47.59359,-54.27349
2019-02-11 11:10:00+00:00,298.0,313.0,11.34,14.78,,47.59359,-54.27349
2019-02-11 11:20:00+00:00,298.0,304.0,11.73,15.41,,47.59359,-54.27349
2019-02-11 11:30:00+00:00,296.0,294.0,12.37,15.13,,47.59359,-54.27349
2019-02-11 11:40:00+00:00,301.0,287.0,11.86,14.53,,47.59359,-54.27349
2019-02-11 11:50:00+00:00,302.0,301.0,14.42,22.38,,47.59359,-54.27349
2019-02-11 12:00:00+00:00,289.0,290.0,15.83,21.19,,47.59359,-54.27349
2019-02-11 12:10:00+00:00,305.0,305.0,15.59,23.9,,47.59359,-54.27349
2019-02-11 12:20:00+00:00,304.0,297.0,14.07,18.96,,47.59359,-54.27349
2019-02-11 12:30:00+00:00,298.0,295.0,13.88,21.94,,47.59359,-54.27349
2019-02-11 12:40:00+00:00,309.0,313.0,18.83,23.46,,47.59359,-54.27349
2019-02-11 12:50:00+00:00,307.0,310.0,12.89,15.85,,47.59359,-54.27349
2019-02-11 13:00:00+00:00,302.0,304.0,9.36,12.18,,47.59359,-54.27349
2019-02-11 13:10:00+00:00,305.0,311.0,11.98,14.61,,47.59359,-54.27349
2019-02-11 13:20:00+00:00,313.0,310.0,12.59,16.3,,47.59359,-54.27349
2019-02-11 13:30:00+00:00,315.0,315.0,14.31,17.5,,47.59359,-54.27349
2019-02-11 13:40:00+00:00,320.0,315.0,12.43,14.53,,47.59359,-54.27349
2019-02-11 13:50:00+00:00,319.0,322.0,14.32,16.58,,47.59359,-54.27349
2019-02-11 14:00:00+00:00,312.0,312.0,14.78,19.73,,47.59359,-54.27349
2019-02-11 14:10:00+00:00,314.0,322.0,13.53,16.97,,47.59359,-54.27349
2019-02-11 14:20:00+00:00,311.0,314.0,11.92,15.88,,47.59359,-54.27349
2019-02-11 14:30:00+00:00,311.0,305.0,15.68,22.42,,47.59359,-54.27349
2019-02-11 14:40:00+00:00,307.0,293.0,14.02,19.51,,47.59359,-54.27349
2019-02-11 14:50:00+00:00,310.0,310.0,13.62,18.64,,47.59359,-54.27349
2019-02-11 15:00:00+00:00,310.0,311.0,11.77,14.79,,47.59359,-54.27349
2019-02-11 15:10:00+00:00,307.0,298.0,10.61,16.16,,47.59359,-54.27349
2019-02-11 15:20:00+00:00,316.0,319.0,11.68,15.42,,47.59359,-54.27349
2019-02-11 15:30:00+00:00,318.0,312.0,7.49,10.77,,47.59359,-54.27349
2019-02-11 15:40:00+00:00,309.0,320.0,11.95,14.97,,47.59359,-54.27349
2019-02-11 15:50:00+00:00,316.0,323.0,14.44,17.24,,47.59359,-54.27349
2019-02-11 16:00:00+00:00,322.0,323.0,12.91,15.55,,47.59359,-54.27349
2019-02-11 16:10:00+00:00,315.0,317.0,13.26,15.73,,47.59359,-54.27349
2019-02-11 16:20:00+00:00,310.0,309.0,13.35,19.14,,47.59359,-54.27349
2019-02-11 16:30:00+00:00,309.0,312.0,11.47,15.58,,47.59359,-54.27349
2019-02-11 16:40:00+00:00,319.0,324.0,11.03,14.38,,47.59359,-54.27349
2019-02-11 16:50:00+00:00,312.0,311.0,5.79,8.81,,47.59359,-54.27349
2019-02-11 17:00:00+00:00,309.0,308.0,8.43,11.64,,47.59359,-54.27349
2019-02-11 17:10:00+00:00,310.0,307.0,11.58,14.17,,47.59359,-54.27349
2019-02-11 17:20:00+00:00,304.0,307.0,12.65,14.47,,47.59359,-54.27349
2019-02-11 17:30:00+00:00,309.0,314.0,13.2,15.45,,47.59359,-54.27349
2019-02-11 17:40:00+00:00,306.0,315.0,12.42,15.43,,47.59359,-54.27349
2019-02-11 17:50:00+00:00,300.0,306.0,8.93,12.8,,47.59359,-54.27349
2019-02-11 18:00:00+00:00,309.0,311.0,9.55,14.06,,47.59359,-54.27349
2019-02-11 18:10:00+00:00,300.0,298.0,8.44,11.78,,47.59359,-54.27349
2019-02-11 18:20:00+00:00,314.0,307.0,9.39,12.11,,47.59359,-54.27349
2019-02-11 18:30:00+00:00,323.0,321.0,11.18,13.35,,47.59359,-54.27349
2019-02-11 18:40:00+00:00,309.0,312.0,10.14,14.25,,47.59359,-54.27349
2019-02-11 18:50:00+00:00,311.0,308.0,9.58,12.3,,47.59359,-54.27349
2019-02-11 19:00:00+00:00,318.0,308.0,8.84,12.12,,47.59359,-54.27349
2019-02-11 19:10:00+00:00,318.0,316.0,10.7,13.25,,47.59359,-54.27349
2019-02-11 19:20:00+00:00,327.0,324.0,9.52,11.9,,47.59359,-54.27349
2019-02-11 19:30:00+00:00,313.0,317.0,12.61,15.14,,47.59359,-54.27349
2019-02-11 19:40:00+00:00,313.0,314.0,11.95,13.67,,47.59359,-54.27349
2019-02-11 19:50:00+00:00,322.0,325.0,10.08,13.49,,47.59359,-54.27349
2019-02-11 20:00:00+00:00,314.0,314.0,11.58,15.0,,47.59359,-54.27349
2019-02-11 20:10:00+00:00,325.0,313.0,8.9,12.01,,47.59359,-54.27349
2019-02-11 20:20:00+00:00,329.0,334.0,10.14,12.35,,47.59359,-54.27349
2019-02-11 20:30:00+00:00,322.0,322.0,9.33,14.12,,47.59359,-54.27349
2019-02-11 20:40:00+00:00,328.0,326.0,9.24,12.29,,47.59359,-54.27349
2019-02-11 20:50:00+00:00,316.0,316.0,10.7,13.87,,47.59359,-54.27349
2019-02-11 21:00:00+00:00,312.0,308.0,9.51,12.87,,47.59359,-54.27349
2019-02-11 21:10:00+00:00,315.0,328.0,8.24,10.56,,47.59359,-54.27349
2019-02-11 21:20:00+00:00,312.0,314.0,8.95,12.1,,47.59359,-54.27349
2019-02-11 21:30:00+00:00,315.0,319.0,8.47,10.53,,47.59359,-54.27349
2019-02-11 21:40:00+00:00,316.0,325.0,6.31,9.34,,47.59359,-54.27349
2019-02-11 21:50:00+00:00,320.0,329.0,8.0,10.48,,47.59359,-54.27349
2019-02-11 22:00:00+00:00,314.0,307.0,7.32,10.39,,47.59359,-54.27349
2019-02-11 22:10:00+00:00,313.0,315.0,6.4,8.64,,47.59359,-54.27349
2019-02-11 22:20:00+00:00,311.0,304.0,8.44,10.39,,47.59359,-54.27349
2019-02-11 22:30:00+00:00,317.0,317.0,7.36,10.26,,47.59359,-54.27349
2019-02-11 22:40:00+00:00,324.0,323.0,6.34,8.26,,47.59359,-54.27349
2019-02-11 22:50:00+00:00,332.0,336.0,10.57,12.56,,47.59359,-54.27349
2019-02-11 23:00:00+00:00,318.0,312.0,10.58,13.55,,47.59359,-54.27349
2019-02-11 23:10:00+00:00,313.0,314.0,11.53,14.62,,47.59359,-54.27349
2019-02-11 23:20:00+00:00,324.0,313.0,9.51,12.45,,47.59359,-54.27349
2019-02-11 23:30:00+00:00,329.0,324.0,9.51,11.38,,47.59359,-54.27349
2019-02-11 23:40:00+00:00,323.0,313.0,7.96,10.53,,47.59359,-54.27349
2019-02-11 23:50:00+00:00,328.0,328.0,8.3,10.69,,47.59359,-54.27349
